Temp_Advection
nan nan nan nan nan nan nan nan nan nan nan nan nan nan nan nan nan nan nan nan nan nan nan nan nan nan nan nan nan nan nan nan nan nan nan nan nan nan nan nan nan nan nan nan nan nan nan nan nan nan nan nan nan nan nan nan nan nan nan nan nan nan nan nan nan nan nan nan nan
nan 0 0 0 0 0 0 0 0 0 0 0 0 0 0 0 0 0 0 0 0 0 0 0 0 0 0 0 -0 -0 -0 -0 -0 -0 -0 -0 -0 -0 -0 -0 -0 -1 -1 -1 -1 -1 -0 -0 0 0 0 0 0 0 0 0 0 -0 -0 -0 -0 -0 -0 -0 -0 -0 -0 -0 nan
nan -0 -0 0 0 0 0 0 0 0 0 0 0 0 0 0 0 0 0 0 0 0 0 0 0 0 0 0 -0 -0 -0 -0 -0 -0 -0 -0 -0 -0 -0 -0 -0 -0 -1 -1 -1 -1 -1 -0 -0 -0 0 0 0 0 0 0 0 0 -0 -0 -0 -1 -0 -0 -0 -0 -0 -0 nan
nan -0 -0 -0 0 0 0 0 0 0 0 0 0 -0 -0 0 0 0 0 0 0 0 0 0 0 0 0 0 0 0 -0 -0 -0 -0 -0 -0 -0 -0 -0 -0 -0 -0 -0 -0 -1 -1 -1 -1 -1 -0 -0 0 0 0 0 0 0 0 0 -0 -0 -0 -0 -0 -0 -0 -0 -0 nan
nan -0 -0 -0 -0 0 0 0 0 0 0 0 0 -0 -0 -0 -0 0 0 0 -0 -0 -0 -0 -0 0 0 0 0 0 0 0 -0 -0 -0 -0 -0 -0 -0 -0 -0 -0 -0 -0 -0 -1 -1 -1 -1 -0 -0 -0 0 0 0 -0 -0 0 0 0 0 -0 -0 -0 -0 -0 -0 -0 nan
nan -0 -0 -0 -0 0 0 0 0 0 0 0 -0 -0 -0 -0 -0 -0 -0 -0 -0 -0 -0 -0 -0 -0 0 0 0 0 0 0 0 -0 -0 -0 -0 -0 -0 -0 -0 -0 -0 -0 -0 -0 -1 -1 -1 -1 -1 -0 -0 0 0 0 0 -0 -0 0 0 0 0 -0 -0 -0 -0 -0 nan
nan -0 -0 -0 -0 -0 0 -0 -0 -0 -0 -0 -0 -0 -0 -0 -0 -0 -0 -0 -0 -0 -0 -0 -0 -0 -0 0 0 0 0 0 0 -0 -0 -0 -0 -0 -0 -0 -0 -0 -0 -0 -0 -0 -0 -1 -1 -1 -1 -1 -0 -0 -0 0 0 0 -0 -0 -0 0 0 0 -0 -0 -0 -0 nan
nan -0 -0 -0 -0 -0 -0 -0 -0 -0 -0 -0 -0 -0 -0 -0 -0 -0 -0 -0 0 -0 -0 -0 0 -0 -0 -0 -0 0 0 0 0 0 0 -0 -0 -0 -0 -0 -0 -0 -0 -0 -0 -0 -0 -0 -0 -1 -1 -1 -1 -1 -0 -0 0 0 0 0 -0 -0 -0 0 0 -0 -0 -0 nan
nan -0 -0 -0 -0 -0 -0 -0 -0 0 -0 -0 -0 -0 -0 -0 -0 -0 -0 -0 0 0 -0 -0 0 0 0 -0 -0 -0 0 0 0 0 0 0 -0 -0 -0 -0 -0 -0 -0 -0 -0 -0 -0 -0 -0 -0 -1 -1 -1 -1 -1 -0 -0 0 0 0 0 -0 -0 -0 0 0 0 -0 nan
nan -0 -0 -0 -0 0 0 -0 0 0 0 0 0 -0 -0 -0 -0 -0 -0 -0 -0 0 0 -0 -0 -0 -0 -0 -0 -0 -0 0 0 0 0 0 0 -0 -0 -0 -0 -0 -0 -0 -0 0 -0 -0 -0 -0 -0 -1 -1 -1 -1 -1 -0 -0 -0 0 0 0 0 0 0 0 0 0 nan
nan -0 -0 -0 0 0 0 0 0 0 0 0 0 0 -0 -0 -0 -0 -0 -0 -0 -0 -0 -0 -0 -0 -0 -0 -0 -0 -0 -0 0 0 0 0 0 -0 -0 -0 -0 -0 -0 -0 -0 -0 0 -0 -0 -0 -0 -0 -1 -1 -1 -1 -1 -0 -0 0 0 0 0 0 0 0 0 0 nan
nan -0 -0 -0 -0 0 0 0 -0 -0 -0 0 0 0 -0 -0 -0 -0 -0 -0 -0 -0 -0 -0 -0 -0 -0 0 -0 -0 -0 -0 -0 -0 0 0 0 0 -0 -0 -0 -0 -0 -0 -0 -0 -0 -0 -0 -0 -0 -0 -0 -1 -1 -1 -1 -1 -0 -0 0 0 0 0 0 0 0 0 nan
nan -0 -0 -0 -0 -0 0 0 -0 -0 -0 -0 0 -0 -0 -0 -0 -0 -0 -0 -0 -0 -0 -0 -0 -0 0 0 0 0 -0 -0 -0 -0 -0 0 0 0 0 -0 -0 -0 -0 -0 -0 -0 -0 -0 -0 -0 0 0 -0 -0 -0 -1 -1 -1 -1 -0 -0 -0 0 0 0 0 0 0 nan
nan -0 -0 -0 -0 -0 -0 0 0 0 0 0 0 0 -0 -0 -0 -0 -0 -0 -0 -0 -0 -0 -0 -0 -0 0 0 0 0 -0 -0 -0 -0 -0 0 0 0 0 0 -0 -0 -0 -0 -0 -0 -0 -0 -0 -0 0 0 -0 -0 -1 -1 -1 -1 -1 -0 -0 -0 0 0 0 0 0 nan
nan -0 -0 -0 -0 -0 -0 -0 0 0 0 0 0 0 -0 -0 -0 -0 -0 -0 -0 -0 -0 -0 -0 -0 -0 -0 -0 -0 0 0 -0 -0 -0 -0 -0 -0 0 0 0 0 -0 -0 -0 -0 -0 -0 -0 -0 -0 -0 0 0 -0 -0 -0 -1 -1 -1 -1 -0 -0 -0 0 0 0 0 nan
nan -1 -0 -0 -0 -0 -0 -0 -0 0 0 0 0 -0 -0 -0 -0 -0 -0 -0 -0 -0 -0 -0 -0 -0 -0 -0 -0 -0 -0 -0 -0 -0 -0 -0 -0 -0 -0 -0 0 0 0 -0 -0 -0 -0 -0 -0 -0 -0 -0 0 0 0 -0 -0 -0 -1 -1 -1 -1 -0 -0 -0 0 0 0 nan
nan -1 -1 -0 -0 -0 -0 0 0 0 0 0 0 0 -0 -0 -0 -0 -0 -0 -0 -0 -0 -0 -0 -0 -0 -0 -0 -0 -0 -0 -0 -0 -0 -0 -0 -0 -0 -0 -0 -0 0 0 -0 -0 -0 -0 -0 -0 -0 -0 -0 0 0 0 -0 -0 -0 -1 -1 -1 -0 -0 -0 -0 0 0 nan
nan -0 -1 -1 -1 -0 -0 0 0 0 0 0 0 0 0 -0 -0 -0 -0 -0 -0 -1 -0 -0 -0 -0 -0 -0 -0 -0 -0 -0 -0 -0 0 -0 0 -0 -0 -0 -0 -0 -0 -0 -0 -0 -0 -0 -0 -0 -0 -0 -0 -0 0 0 0 -0 -0 -0 -1 -1 -0 -0 -0 -0 -0 -0 nan
nan -0 -1 -1 -1 -0 -0 0 0 0 0 0 0 0 0 0 -0 -0 -0 -0 -0 -0 -0 -0 -0 -0 -0 -0 -0 -0 -0 -0 0 0 0 0 0 0 0 0 -0 -0 -0 -0 -0 -0 -0 -0 -0 -0 -0 -0 -0 -0 -0 0 0 -0 -0 -0 -0 -0 -0 -0 -0 -0 -0 -0 nan
nan -0 -1 -1 -0 -0 -0 0 0 -0 0 -0 -0 -0 0 -0 -0 -0 -0 -0 -0 -0 -0 -0 -0 -0 -0 -0 -0 -0 -0 -0 -0 -0 0 0 0 0 0 0 0 0 0 -0 -0 -0 -0 -0 -0 -0 -0 -0 -0 -0 -0 -0 0 0 -0 -0 -0 -0 -0 -0 -0 -0 -0 -0 nan
nan -0 -0 -0 -0 -0 -0 -0 -0 -0 -0 -0 -0 -0 -0 -0 -0 -0 -0 -0 -0 -0 -0 -0 -0 -0 -1 -1 -1 -0 -0 -0 -0 -0 -0 -0 -0 -0 -0 0 0 0 0 0 0 0 -0 -0 -0 -0 -0 -0 -1 -1 -0 -0 -0 -0 -0 -0 -0 -0 -0 -0 -0 -0 -0 -0 nan
nan -0 -0 -0 -0 -0 -0 -0 0 -0 -0 -0 -0 -0 -0 -0 -0 -0 -0 -0 -0 -0 -0 -0 -0 -0 -0 -1 -1 -1 -1 -1 -0 -0 -0 -0 -0 -0 -0 -0 0 0 1 1 0 0 0 0 -0 -0 -0 -0 -0 -1 -1 -0 -0 -0 -0 -0 -0 -0 -0 -0 -0 -0 -0 -0 nan
nan -0 -0 -0 -0 -0 0 0 -0 -0 -0 -0 -0 -0 -0 -0 -0 -0 -0 -0 -0 -0 -0 -0 -0 -0 -0 -0 -1 -1 -1 -1 -1 -1 -0 -0 -0 -0 -0 -0 -0 -0 0 1 1 0 0 0 0 0 -0 -0 -0 -0 -1 -1 -0 -0 -0 0 0 -0 -0 -0 -0 -0 -0 -0 nan
nan -0 -0 -0 -0 -0 0 -0 -0 0 -0 -0 -0 -0 -0 -0 -0 -0 -0 -0 -0 -0 -0 -0 -0 -0 -0 -0 -0 -1 -1 -1 -1 -1 -1 -0 -0 -0 -0 -0 -0 -0 -0 0 0 0 0 0 0 0 0 -0 -0 -0 -1 -1 -1 -0 -0 -0 0 0 -0 -0 -0 -0 -0 -0 nan
nan -0 -0 -0 -0 -0 -0 -0 -0 -0 -0 -0 -0 -0 -0 -0 -0 -0 -0 -0 -0 -0 -0 -0 -0 -0 -0 -0 -0 -0 -0 -1 -1 -1 -1 -1 -0 -0 -0 -1 -0 -0 -0 -0 0 0 0 0 0 0 0 0 -0 -0 -0 -1 -1 -1 -0 -0 -0 0 0 -0 -0 -0 -0 -0 nan
nan -0 -0 -0 -0 -0 -0 -0 -0 -0 -0 -0 -0 -0 -0 -0 -0 -0 -0 -0 -0 -0 -0 -0 -0 -0 -0 -0 -0 -0 -0 -0 -1 -1 -1 -1 -1 -1 -0 -0 -1 -1 -0 -0 -0 0 0 -0 -0 -0 -0 0 0 0 -0 -1 -1 -1 -1 -0 -0 -0 0 -0 -0 -0 -0 -0 nan
nan -0 -0 -0 -0 -0 -0 -0 -0 -0 -0 -0 -0 -0 -0 -0 -0 -0 -0 -0 -0 -0 -0 -0 -0 -0 -1 -1 -1 -0 -0 -0 -0 -1 -1 -1 -1 -1 -1 -1 -0 -0 -0 -0 -0 -0 -0 -0 -0 -0 -0 -0 -0 0 0 -0 -0 -1 -1 -1 -0 -0 -0 -0 -0 -0 -0 -0 nan
nan -0 -0 -0 -0 -0 -0 -0 -0 -0 -0 -0 -0 -0 -0 -0 -0 -0 -0 -0 -0 -0 -0 -0 -0 -0 -1 -1 -1 -1 -0 -0 -0 -0 -1 -1 -1 -1 -1 -1 -1 -1 -0 -0 -0 -0 -0 -0 -0 -0 -1 -1 -0 -0 0 0 -0 -0 -1 -1 -1 -0 -0 -0 -0 -0 -0 -0 nan
nan -0 -0 -0 -0 -0 -0 -0 -0 -0 -0 -0 -0 -0 -0 -0 -0 -0 -0 -0 -0 -0 -0 -0 -0 -0 -0 -1 -1 -1 -1 -1 -1 -0 -0 -0 -1 -1 -1 -1 -1 -1 -0 -0 -0 -0 -1 -0 -0 -0 -1 -1 -1 -0 -0 -0 0 -0 -0 -1 -1 -1 -0 -0 0 -0 -0 -0 nan
nan -1 -1 -1 -0 -0 -0 -0 -0 -0 -0 -0 -0 -0 -1 -0 -0 -0 -0 -0 -0 -0 -0 -0 -0 -0 -0 -0 -1 -1 -1 -1 -1 -1 -0 -0 -0 -0 -0 -1 -1 -1 -0 -0 -0 -0 -1 -1 -1 -1 -1 -1 -1 -1 -0 -0 -0 -0 -0 -1 -1 -1 -1 -0 0 0 -0 -0 nan
nan -1 -1 -1 -1 -1 -1 -1 -1 -1 -1 -1 -1 -1 -1 -1 -1 -0 -0 -0 -0 -0 -0 -0 -0 -0 -0 -0 -0 -1 -1 -1 -1 -1 -1 -0 -0 0 -0 -0 -1 -1 -0 -0 -0 -0 -0 -1 -1 -1 -1 -1 -1 -1 -1 -0 -0 -0 -0 -0 -1 -1 -1 -0 -0 0 0 -0 nan
nan -1 -1 -1 -1 -1 -1 -1 -1 -1 -1 -1 -1 -1 -1 -1 -1 -1 -1 -1 -1 -1 -1 -0 -0 -0 -0 -1 -1 -1 -1 -1 -1 -1 -1 -0 -0 -0 0 -0 -0 -0 -0 -0 -0 -0 -0 -0 -0 -1 -1 -1 -1 -1 -1 -0 -0 -0 -0 -0 -1 -1 -1 -1 -0 0 0 0 nan
nan -1 -1 -1 -1 -1 -1 -0 -1 -1 -1 -0 -1 -1 -1 -1 -1 -1 -1 -1 -1 -1 -1 -1 -1 -1 -1 -1 -1 -1 -1 -1 -1 -0 -0 -0 -0 -0 -0 -0 -0 -0 -0 -0 -0 -0 -0 -0 -0 -0 -1 -1 -1 -1 -1 -1 -0 -0 -0 -0 -0 -1 -1 -1 -1 -0 0 0 nan
nan -1 -1 -1 -1 -1 -1 -1 -0 -0 -0 -0 -0 -0 -0 -0 -0 -0 -0 -1 -1 -1 -1 -0 -0 -1 -1 -1 -1 -1 -1 -1 -0 -0 -0 -0 -0 -1 -1 -1 -0 -0 0 -0 -0 -0 -0 -0 0 -0 -0 -1 -1 -1 -1 -1 -1 -0 -0 -0 -0 -0 -1 -1 -1 -1 0 1 nan
nan -1 -1 -1 -1 -1 -1 -1 -1 -1 -1 -1 -0 -0 -0 -0 -0 -0 -0 -0 -0 -1 -0 -0 -0 -0 -1 -1 -1 -1 -1 -1 -0 -0 -0 -0 -0 -1 -1 -1 -0 -0 0 0 -0 -0 -0 -0 0 0 -0 -0 -1 -1 -1 -1 -1 -1 -0 -0 -0 -0 -1 -1 -1 -1 -0 0 nan
nan -1 -1 -1 -1 -1 -1 -1 -1 -1 -1 -1 -1 -1 -1 -1 -0 -0 -0 -1 -1 -1 -0 -0 -0 -0 -0 -0 -1 -1 -1 -1 -1 -1 -0 -0 -0 -1 -1 -1 -0 -0 0 0 -0 -0 -0 -0 0 0 0 -0 -1 -1 -1 -1 -1 -1 -1 -1 -0 -0 -0 -0 -1 -1 -1 0 nan
nan -1 -1 -1 -1 -1 -1 -1 -1 -1 -1 -1 -1 -1 -1 -1 -1 -0 -1 -1 -1 -1 -1 -1 -0 -0 -0 -0 -0 -0 -0 -0 -1 -1 -1 -1 -1 -1 -1 -1 -1 -0 -0 -0 -0 -0 -0 -0 -0 0 0 -0 -0 -1 -1 -1 -1 -1 -1 -1 -1 -0 -0 -0 -1 -1 -1 -0 nan
nan -0 -0 -0 -0 -0 -0 -0 -1 -1 -1 -1 -1 -1 -1 -1 -1 -1 -1 -1 -1 -1 -1 -1 -0 -0 -0 -0 -0 -0 -0 -0 -0 -0 -1 -1 -1 -1 -1 -1 -1 -1 -0 -0 -0 -0 -0 -0 -0 0 0 -0 -0 -0 -1 -1 -1 -1 -1 -1 -1 -1 -0 -0 -0 -1 -1 -0 nan
nan 0 -0 -0 -0 -0 -0 -0 -0 -0 -0 -0 -0 -0 -1 -1 -1 -1 -1 -1 -1 -1 -1 -1 -1 -0 -0 -0 -1 -1 -0 -0 0 0 -0 -1 -0 -0 -1 -1 -1 -1 -0 0 -0 -1 -0 -0 -0 0 0 0 -0 -0 -0 -1 -1 -1 -1 -1 -1 -1 -0 -0 -0 -0 -1 -0 nan
nan 0 0 0 -0 -0 -0 -0 -0 -0 -0 -0 -0 -0 -0 -0 -0 -0 -0 -1 -1 -1 -1 -1 -1 -1 -0 -0 -1 -1 -1 -1 -0 0 0 -0 -0 -0 -0 -1 -1 -1 -0 0 -0 -0 -1 -1 -0 -0 0 0 0 -0 -0 -1 -1 -1 -1 -1 -1 -1 -1 -0 -0 -0 -0 -0 nan
nan nan nan nan nan nan nan nan nan nan nan nan nan nan nan nan nan nan nan nan nan nan nan nan nan nan nan nan nan nan nan nan nan nan nan nan nan nan nan nan nan nan nan nan nan nan nan nan nan nan nan nan nan nan nan nan nan nan nan nan nan nan nan nan nan nan nan nan nan
Wind_Speed
17 16 15 15 15 15 15 15 15 15 15 15 16 16 17 17 18 18 19 19 20 20 20 20 19 19 19 18 18 18 18 18 18 19 20 21 22 22 23 23 23 24 24 24 24 23 21 19 16 14 13 13 13 14 15 15 16 16 14 11 7 4 5 7 8 9 8 8 8
17 16 15 15 15 15 15 14 14 15 15 15 16 16 16 17 17 18 18 19 19 19 20 19 19 19 19 18 18 18 17 17 17 18 18 20 20 21 22 22 23 23 23 23 23 24 23 21 19 16 14 13 12 12 13 13 14 14 15 14 11 7 4 5 8 10 11 10 9
17 16 15 15 15 14 14 14 14 14 14 15 15 16 16 16 17 17 17 18 18 19 19 19 19 19 19 19 18 18 17 17 17 17 17 18 19 20 21 21 22 22 22 22 22 23 23 23 22 19 17 14 12 11 11 12 12 13 13 13 13 11 8 5 5 8 10 12 12
16 15 15 15 14 14 14 14 14 14 14 14 15 15 16 16 16 16 17 17 17 18 18 19 19 19 19 19 19 18 18 17 16 16 16 17 18 19 20 20 21 21 21 22 22 22 22 22 22 21 20 17 14 13 11 11 11 11 12 12 12 11 10 8 6 5 7 10 12
16 15 15 14 14 14 14 14 14 14 14 14 14 15 15 15 16 16 16 16 17 17 18 18 19 19 19 19 19 18 18 17 17 16 16 15 16 17 18 19 20 20 21 21 21 21 21 21 21 22 21 19 17 15 13 11 11 11 11 11 11 11 10 10 9 7 6 6 9
15 15 14 14 14 14 13 14 14 14 14 14 14 14 15 15 15 15 15 16 16 16 17 18 18 18 19 19 19 19 18 18 17 16 16 15 15 16 17 18 18 19 20 20 20 21 21 20 21 21 21 20 19 17 15 13 11 10 10 11 11 11 10 10 9 9 8 6 6
15 15 15 14 13 13 13 13 13 13 14 14 14 14 14 15 15 15 15 15 15 15 16 17 17 18 18 18 19 19 19 18 18 17 16 15 15 15 15 16 17 18 19 19 20 20 20 20 20 20 20 20 20 19 17 15 13 11 10 10 11 11 11 11 10 9 8 8 7
16 15 15 14 13 13 13 13 13 13 13 13 13 14 14 14 14 14 14 14 14 15 15 16 16 17 18 18 18 19 19 18 18 18 17 16 15 14 14 15 16 16 17 18 19 19 20 20 20 20 20 20 20 20 19 17 15 13 12 11 10 11 11 12 11 10 9 8 8
16 16 15 14 14 13 12 12 12 12 12 13 13 13 13 14 14 14 14 14 14 14 15 15 16 17 17 18 18 18 19 19 18 18 17 17 16 15 14 14 14 15 16 17 18 18 19 19 20 20 20 20 20 20 20 19 17 16 14 12 11 11 11 11 12 12 11 10 9
16 16 16 15 14 13 12 12 12 12 12 12 12 12 13 13 13 14 14 14 14 14 15 15 16 16 17 17 18 18 18 19 19 18 18 17 16 15 14 14 14 14 15 16 16 17 18 19 19 19 19 19 19 20 20 19 19 17 16 14 12 11 11 11 12 12 12 11 10
17 17 16 15 15 14 13 12 11 11 11 11 11 11 12 12 13 13 13 14 14 14 15 15 16 16 16 17 17 18 18 19 19 19 18 18 17 16 15 14 13 13 14 14 15 16 17 18 18 19 19 19 19 19 19 19 19 18 17 16 14 13 12 11 11 11 12 11 11
18 17 17 16 16 15 13 12 11 11 11 11 11 11 11 11 12 12 13 13 14 14 15 15 16 16 16 17 17 18 18 18 19 19 19 18 18 17 16 15 14 13 13 13 14 15 16 16 17 18 18 18 19 19 19 19 19 18 18 17 16 14 13 12 12 12 11 11 11
18 18 18 17 16 16 15 13 12 11 11 11 10 10 10 10 11 11 12 12 13 13 14 15 15 16 16 16 17 17 17 18 18 19 19 19 18 18 17 15 14 13 13 13 13 14 14 15 16 17 18 18 18 18 18 18 18 18 18 18 17 16 14 13 12 12 12 11 11
18 18 18 18 17 17 16 15 14 12 12 11 10 10 10 10 10 10 11 11 12 12 13 14 15 15 15 16 16 16 17 17 18 18 19 19 19 19 18 16 15 14 13 13 13 13 13 14 15 16 17 17 17 18 18 18 18 18 18 18 18 17 16 14 13 12 12 12 11
19 19 18 18 18 17 17 16 15 14 13 12 11 11 11 10 10 10 10 10 11 12 13 13 14 15 15 16 16 16 16 17 17 17 18 18 19 19 19 18 17 15 14 13 13 13 13 13 14 15 16 16 17 17 17 18 18 18 18 18 18 18 17 16 14 13 13 13 12
19 19 19 19 18 18 18 17 16 15 14 13 12 11 11 11 11 11 11 10 11 11 12 13 13 14 15 15 16 16 16 16 17 17 17 18 19 19 19 19 18 17 16 15 14 13 13 13 14 14 15 15 16 16 17 17 17 18 18 18 18 18 18 17 16 14 13 13 13
19 20 20 19 19 19 18 17 17 15 14 13 12 12 11 11 11 11 11 11 11 11 11 12 13 14 14 15 15 16 16 16 17 17 17 18 18 19 19 19 19 19 18 17 15 14 14 14 14 14 14 15 15 15 16 16 17 17 17 18 18 18 18 17 17 15 14 14 13
19 19 20 20 20 19 18 17 16 15 14 13 12 11 11 11 11 11 11 12 12 11 11 12 12 13 14 14 15 16 16 16 17 17 17 18 18 18 19 19 19 19 19 18 17 16 15 14 14 14 14 15 15 15 15 16 16 17 17 17 18 18 18 18 17 16 15 14 14
18 19 19 20 20 19 18 17 16 14 13 12 12 11 11 11 11 11 11 12 12 12 12 12 12 13 13 14 15 15 16 17 17 17 18 18 18 18 19 19 19 19 19 19 19 18 17 16 15 15 15 15 15 15 15 15 16 16 16 17 17 17 18 18 18 17 16 15 14
18 19 19 19 19 18 17 16 14 13 12 12 12 11 11 11 11 11 11 12 12 12 13 13 13 13 13 14 14 15 16 17 18 18 19 19 19 19 19 19 19 19 19 19 19 19 19 18 17 16 16 15 16 16 15 15 15 16 16 16 17 17 17 18 18 17 17 16 15
18 18 19 18 18 17 16 15 13 12 12 12 12 12 12 12 12 12 13 13 13 13 13 13 13 13 13 14 14 15 16 17 18 19 19 20 20 20 20 20 20 19 19 19 19 19 19 19 18 18 17 16 16 16 16 16 16 16 16 16 17 17 17 18 18 18 17 16 15
18 18 18 18 17 16 15 14 13 13 12 12 12 13 13 13 14 14 14 14 14 14 14 14 14 14 14 14 15 15 16 17 18 19 20 21 21 22 22 21 21 20 20 20 19 19 19 19 19 18 18 17 17 17 17 17 17 16 16 16 16 17 17 17 17 18 17 17 16
18 18 17 17 17 16 16 15 14 14 13 14 14 14 15 15 15 16 16 16 16 16 16 16 15 15 15 15 15 15 16 17 18 19 20 21 22 23 23 23 22 22 21 21 20 20 20 20 20 19 19 19 18 18 18 17 17 17 17 16 16 16 17 17 17 17 17 17 17
18 18 18 17 17 17 16 16 16 15 16 16 16 16 17 17 17 18 18 18 18 18 18 17 17 17 17 16 16 16 16 17 18 19 20 21 22 23 24 24 24 24 23 22 22 21 21 21 20 20 20 19 19 19 19 18 18 18 17 17 17 16 16 17 17 17 17 17 17
18 18 18 18 18 18 18 18 18 18 18 18 18 19 19 19 19 20 20 20 20 20 20 20 19 19 19 18 18 17 17 18 19 20 21 22 23 24 25 25 26 25 25 24 23 22 22 22 21 21 20 20 20 20 19 19 19 19 19 18 18 17 17 17 17 17 17 17 17
19 19 20 20 20 20 20 20 20 20 21 21 21 21 21 21 22 22 22 22 22 22 22 22 22 22 22 21 21 20 20 19 20 21 22 23 24 24 25 25 26 26 26 25 25 24 23 22 22 21 21 21 20 20 20 20 20 20 20 19 19 18 18 18 17 17 17 17 17
20 20 21 21 22 22 22 23 23 23 24 24 24 24 24 24 24 24 24 24 24 24 24 24 24 24 25 25 25 25 24 24 23 23 24 24 25 25 25 25 26 26 26 26 25 25 24 23 22 22 22 21 21 20 20 20 20 20 20 20 20 19 19 19 18 17 16 16 16
20 21 21 22 22 23 23 24 25 25 25 25 26 26 25 25 25 25 25 25 25 25 25 25 25 26 26 27 28 28 29 29 29 28 27 26 26 26 26 25 26 26 26 26 26 25 24 23 23 22 22 22 22 21 21 21 20 21 21 21 20 20 20 20 19 18 17 16 16
20 21 21 22 22 23 23 24 24 25 25 25 26 26 26 26 25 25 25 25 25 25 24 24 25 25 26 27 28 29 30 31 31 31 31 29 28 27 26 25 25 25 25 25 25 25 24 24 23 22 22 22 22 22 21 21 21 21 21 21 21 21 20 20 20 19 18 17 16
21 21 22 22 23 23 23 24 24 25 25 26 26 26 26 26 26 26 26 25 25 24 24 24 24 25 25 26 27 28 29 30 31 32 32 31 30 28 26 25 25 24 24 24 24 24 24 24 23 22 22 22 22 22 22 21 21 21 21 21 21 21 21 21 20 20 19 18 17
21 22 22 23 24 24 24 25 26 26 27 27 27 28 28 28 28 28 28 28 28 27 27 26 26 25 26 26 27 28 28 29 30 31 31 32 31 29 27 26 25 24 24 24 24 24 24 23 23 22 22 22 22 22 22 21 21 21 21 21 21 21 21 21 21 20 20 19 17
21 22 22 23 24 24 25 26 26 27 28 28 29 29 30 30 31 31 31 31 31 31 31 30 29 29 28 28 28 29 29 29 30 31 31 32 32 30 28 27 25 24 23 23 23 23 23 23 23 22 22 22 22 22 22 21 21 21 21 21 21 21 21 21 21 21 20 19 18
19 20 20 21 22 22 23 24 24 25 26 27 27 28 28 29 30 30 31 31 32 32 32 32 32 31 31 30 30 30 30 31 31 31 32 32 32 31 29 28 26 24 23 23 22 22 22 22 22 22 22 22 22 22 22 21 21 21 21 21 21 21 21 21 21 21 21 20 19
17 18 18 18 19 19 20 20 21 22 22 23 23 24 24 25 25 26 26 27 28 28 29 30 30 30 30 30 30 31 31 31 32 32 32 32 31 31 30 29 27 25 24 23 22 22 22 22 22 22 22 22 22 22 22 22 21 21 21 21 21 21 21 21 21 21 21 21 20
17 17 17 17 17 18 18 18 19 19 19 20 20 20 21 21 22 22 22 23 23 24 25 25 26 27 27 28 28 29 30 30 31 31 31 30 30 30 30 29 28 26 25 24 23 22 22 22 22 22 22 22 22 22 22 22 21 21 21 21 21 21 21 21 21 21 21 21 21
18 18 18 18 18 18 18 18 19 19 19 19 20 20 20 20 21 21 21 22 22 22 23 23 24 25 25 26 27 27 28 28 29 29 29 29 29 29 29 29 28 27 26 25 24 23 23 22 22 22 22 22 22 22 22 22 22 22 21 21 21 21 20 20 21 21 21 21 21
19 19 20 20 20 19 19 19 20 20 20 20 20 20 21 21 21 21 22 22 22 23 23 23 24 24 24 25 25 25 26 26 27 27 28 28 28 29 29 29 29 28 27 26 25 24 23 23 22 22 22 22 22 22 22 22 22 22 22 21 21 20 20 20 20 21 21 21 21
20 20 20 21 21 20 20 20 20 20 20 20 20 21 21 21 21 21 22 22 22 23 23 24 24 24 24 24 24 25 25 25 25 26 27 27 28 28 29 29 29 28 28 27 26 25 24 24 23 23 22 22 22 22 22 22 22 22 22 22 21 21 20 20 20 20 20 21 21
20 20 20 21 21 21 21 21 21 21 21 21 21 20 20 21 21 21 21 21 22 23 23 24 24 24 24 24 24 25 25 25 25 26 26 27 27 28 28 29 29 29 28 28 27 26 26 25 24 23 23 23 23 22 22 22 22 22 22 22 21 21 20 20 20 20 20 20 21
20 20 21 21 21 21 21 21 21 21 21 21 21 21 20 20 20 21 21 21 21 22 23 23 24 24 24 24 25 25 26 26 26 26 26 27 27 28 28 29 29 29 29 29 28 28 27 26 25 25 24 24 23 23 22 22 22 23 23 22 22 21 20 20 20 20 20 20 20
21 21 21 22 22 22 22 22 22 21 21 21 21 21 20 20 20 20 20 20 21 21 22 23 23 24 24 24 25 25 26 26 26 26 26 27 27 28 28 29 29 30 30 29 29 29 28 27 27 26 25 25 24 24 23 23 23 23 23 22 22 21 21 21 21 20 20 19 20
Wind_Direction
312 310 313 317 321 324 327 329 330 331 331 332 333 333 334 335 337 339 341 342 343 345 347 349 350 351 350 350 349 350 350 351 351 352 353 354 355 357 360 2 2 3 3 4 5 6 7 8 7 6 4 3 3 2 2 3 5 7 8 5 353 312 267 256 251 244 236 229 232
308 307 311 316 320 324 327 329 330 331 331 332 333 333 333 334 336 338 340 342 343 344 346 348 349 351 351 351 350 349 349 349 350 350 351 351 352 354 356 359 0 2 2 2 2 3 4 6 6 5 3 1 1 1 1 1 2 3 5 5 2 353 318 274 260 254 249 242 236
305 305 309 314 320 323 326 329 330 331 332 332 333 333 333 334 335 336 339 341 343 344 345 347 349 350 351 351 350 349 348 348 348 348 349 349 349 351 353 355 357 359 0 1 1 1 2 3 4 4 3 0 358 357 358 359 360 360 1 2 2 1 354 329 282 262 255 251 244
301 302 306 312 318 322 326 329 331 333 333 333 333 333 333 333 334 336 338 340 342 343 345 347 348 349 350 351 351 349 348 347 347 346 347 346 346 347 349 351 353 356 358 359 360 0 0 1 2 2 2 1 358 354 353 353 355 356 357 357 357 358 359 355 337 298 270 259 252
297 298 304 310 316 321 325 329 331 333 333 333 332 332 331 332 332 334 336 339 341 343 344 345 347 348 349 349 350 349 348 347 346 345 345 345 344 344 345 347 349 352 354 356 358 358 359 359 359 0 1 0 359 356 352 348 347 349 351 352 350 350 352 354 352 343 321 289 267
293 296 301 308 314 319 323 327 330 332 333 333 332 331 330 330 331 332 334 336 339 341 342 343 344 345 346 347 347 348 347 347 346 345 344 343 343 342 342 343 345 348 350 353 355 356 357 357 357 358 358 359 359 357 353 348 344 342 343 344 343 342 342 344 347 349 347 335 312
290 293 298 304 310 315 320 324 327 330 332 332 332 330 329 329 329 330 332 334 336 338 339 340 341 342 343 344 345 345 346 347 346 345 344 343 341 340 340 340 342 344 346 348 351 353 354 355 355 355 356 356 357 357 355 351 346 340 337 336 336 335 335 335 335 338 342 344 341
287 289 294 300 305 311 316 320 324 328 330 331 331 330 329 328 328 328 329 331 332 334 336 337 338 339 340 341 342 343 344 345 346 345 344 343 341 339 338 338 338 340 342 344 346 349 351 352 353 353 353 353 354 355 355 354 350 344 338 333 330 330 330 329 328 328 330 335 338
283 286 290 295 300 305 310 315 320 324 327 329 330 329 328 327 327 327 328 329 330 331 332 334 335 336 337 339 339 340 341 342 344 345 344 343 342 339 337 336 336 337 338 340 342 344 347 349 351 351 352 351 351 352 352 353 351 348 343 336 330 326 325 324 323 323 323 325 328
280 282 286 290 295 298 303 308 314 318 323 326 327 327 326 326 326 326 327 328 329 330 331 332 333 333 335 336 336 337 338 339 340 342 343 343 342 340 338 336 335 334 335 336 338 340 342 345 346 348 349 349 349 349 349 349 350 349 346 341 334 327 322 320 319 319 318 319 321
278 280 283 287 290 293 297 302 307 312 317 320 323 323 324 324 324 325 326 328 329 330 330 331 332 332 332 333 333 334 335 336 337 338 340 341 341 340 339 337 335 333 332 332 334 335 337 339 342 343 345 347 347 346 346 346 346 347 347 344 339 332 324 319 316 314 314 315 316
276 279 282 285 288 290 292 296 300 305 309 314 316 318 319 319 320 322 324 326 328 329 330 331 331 331 331 331 331 331 332 333 334 335 336 338 339 339 339 338 336 333 330 329 330 331 332 334 336 338 341 343 344 344 344 343 343 344 344 344 342 337 329 321 316 313 311 311 311
276 278 281 283 285 287 289 291 294 298 302 306 308 311 312 313 315 317 320 322 325 328 330 331 331 330 329 329 328 328 329 329 330 332 333 334 336 337 338 338 336 333 330 328 327 327 328 329 331 333 335 338 340 341 341 341 340 340 341 341 341 339 334 327 319 313 310 308 306
276 277 280 282 283 285 286 287 290 292 295 298 301 303 304 306 308 311 314 318 321 324 327 328 329 329 328 327 326 325 325 326 327 328 329 330 331 333 335 336 336 334 331 327 325 324 323 324 325 327 329 332 335 337 338 338 337 337 337 338 339 339 337 332 325 317 310 306 303
276 277 279 280 281 282 283 284 286 288 291 293 295 297 299 301 303 306 309 312 316 320 322 324 325 326 326 326 325 324 323 323 323 324 325 327 328 329 331 332 334 333 332 328 325 322 320 319 320 321 323 326 329 332 334 335 335 335 334 334 335 336 336 335 330 323 315 307 302
278 278 278 278 279 279 280 282 284 286 288 291 293 296 298 300 302 304 307 309 311 315 318 320 321 323 324 324 324 323 322 321 320 321 321 323 324 325 327 328 330 331 331 328 325 321 318 316 315 315 317 319 322 325 328 330 331 332 332 331 332 333 334 334 333 328 321 312 304
278 278 278 277 277 277 278 279 281 284 287 289 292 295 298 301 303 305 306 307 309 311 313 315 317 319 320 321 321 321 320 319 318 318 318 319 320 321 323 324 326 327 327 327 324 321 317 313 311 310 311 312 315 318 321 324 326 328 328 329 329 329 330 331 332 330 326 318 309
278 278 277 276 276 276 277 278 280 283 285 288 291 293 297 299 302 304 305 306 307 308 309 310 313 314 315 316 317 317 317 316 316 315 315 315 316 317 318 320 321 322 323 324 323 321 317 313 310 307 306 306 308 311 314 317 320 323 324 325 326 326 327 328 329 330 328 323 315
276 275 275 274 275 275 277 278 280 282 284 285 288 290 293 295 298 300 302 304 305 305 306 306 308 309 310 311 313 314 315 314 314 314 313 313 312 312 314 315 316 318 319 320 320 319 317 314 310 306 303 302 302 304 307 310 314 317 319 321 322 323 324 324 326 327 327 325 320
273 272 273 273 274 276 277 278 280 281 282 283 285 286 289 291 294 296 298 300 302 303 303 303 304 305 306 308 309 311 312 313 313 313 312 311 310 310 309 310 311 312 314 316 316 317 316 314 310 306 302 299 298 299 301 303 307 310 313 316 318 319 320 321 322 323 324 325 323
271 271 272 273 274 275 276 277 278 279 280 281 283 284 286 289 291 293 295 297 299 300 301 301 302 302 303 304 306 307 309 311 312 312 311 310 309 308 307 307 307 307 309 311 312 313 313 312 310 306 302 298 296 295 296 297 300 303 306 310 313 315 316 317 319 320 321 322 322
271 271 271 272 273 273 274 275 275 276 277 279 280 282 284 286 288 290 292 295 296 298 299 300 301 301 301 302 303 304 306 308 309 310 310 309 309 308 307 306 304 304 304 305 307 309 309 309 308 306 302 298 295 292 291 292 293 296 299 303 306 309 312 313 315 316 317 318 319
271 271 271 271 271 272 273 273 274 275 277 278 279 280 282 284 286 288 290 292 294 295 297 298 299 300 301 301 302 303 304 305 306 307 308 308 307 307 306 305 304 302 300 301 302 304 305 306 306 304 302 298 295 292 289 288 288 290 292 296 300 303 306 309 311 312 314 315 315
273 272 272 271 272 273 273 274 275 276 277 279 280 281 283 284 286 288 289 291 292 294 295 296 298 299 300 300 301 302 303 304 305 305 306 306 306 305 305 304 303 301 299 299 299 300 301 302 303 303 301 299 296 293 290 287 286 286 287 290 294 297 300 303 305 308 309 311 312
277 276 275 275 275 275 275 276 277 278 279 280 281 282 284 285 286 288 289 290 291 293 294 295 296 296 297 298 299 300 301 303 303 304 304 304 304 303 303 302 301 300 299 297 297 297 298 299 300 301 300 299 297 295 292 289 286 285 285 286 289 292 295 297 300 302 305 306 308
282 281 280 279 279 279 279 279 280 280 281 282 283 284 285 285 286 287 288 289 290 291 292 293 294 294 295 295 296 298 299 300 301 302 302 302 302 301 301 300 299 298 297 296 295 295 296 297 298 298 298 298 297 295 293 290 287 285 283 283 284 287 290 293 295 297 299 301 303
288 287 285 284 284 283 283 283 283 283 284 284 284 284 285 285 285 286 287 288 289 289 290 291 292 292 293 293 294 296 297 298 299 299 299 300 299 299 299 298 297 296 296 296 295 294 295 296 296 297 297 296 295 294 292 290 288 285 283 282 281 283 286 289 290 292 294 296 298
291 289 288 288 287 287 286 286 286 286 286 285 285 284 284 284 284 285 285 286 287 287 288 289 290 291 292 293 294 295 296 297 297 297 297 297 297 297 297 296 295 295 295 295 295 295 294 295 295 296 296 295 294 293 291 290 288 286 283 281 279 280 281 284 286 288 289 291 293
290 289 288 288 287 287 287 287 287 287 286 286 285 285 284 284 284 284 284 285 285 286 288 289 290 291 293 294 295 296 297 297 297 297 296 296 295 295 294 294 293 293 294 295 295 295 295 295 295 295 295 294 293 292 290 289 288 286 284 281 278 277 278 280 283 285 286 287 289
289 288 287 286 285 285 285 285 285 285 285 285 285 284 284 284 284 284 284 284 285 286 287 289 291 293 294 295 297 297 297 297 297 297 296 295 294 293 293 292 292 292 293 294 295 296 296 296 296 295 294 293 292 291 289 288 287 286 285 282 279 277 276 277 279 282 284 285 286
291 290 288 287 286 285 284 284 284 283 283 283 284 284 284 284 284 284 284 285 285 285 286 288 290 292 293 294 295 296 296 296 296 295 294 293 292 292 291 291 291 292 293 294 295 296 297 297 297 296 294 293 291 290 289 288 287 286 285 284 281 278 276 275 276 279 282 283 283
295 294 292 291 289 288 287 286 286 285 285 285 284 284 284 284 284 284 284 284 285 285 286 286 287 289 290 291 292 293 293 293 293 292 292 291 291 291 290 290 290 291 292 294 295 296 296 297 297 297 295 293 291 289 288 287 286 285 285 284 283 280 277 274 274 276 279 281 282
299 298 297 296 295 294 293 292 291 290 289 289 289 288 288 287 287 286 286 286 286 286 286 286 287 287 288 289 289 290 290 290 290 290 290 290 290 290 290 289 288 289 291 293 294 295 295 296 297 297 297 295 292 290 287 286 285 285 284 284 283 282 279 276 273 273 276 279 280
302 301 301 300 300 299 299 298 297 296 296 295 295 294 293 293 292 291 291 290 289 289 288 288 288 288 288 288 288 288 288 288 288 288 289 290 290 290 289 288 287 288 290 292 293 293 294 294 296 297 297 296 294 291 288 287 285 284 284 283 283 282 281 278 274 272 272 275 278
304 303 303 303 303 303 303 302 302 301 301 301 300 300 299 298 298 297 296 295 294 293 292 291 291 290 289 289 288 288 288 288 288 288 289 289 290 289 288 287 286 287 288 290 291 292 293 293 294 296 297 296 294 292 290 288 286 284 283 282 282 282 281 279 276 272 271 272 275
305 304 304 304 304 304 304 304 303 303 303 303 303 302 302 301 300 300 299 298 297 296 295 294 293 293 292 292 291 290 290 290 290 290 290 290 290 289 288 287 286 286 286 288 289 291 291 292 293 295 296 296 295 294 292 289 287 284 282 281 281 281 281 280 278 274 271 270 272
305 304 304 304 304 304 303 303 303 303 303 303 302 302 302 301 301 301 300 300 299 299 298 297 297 296 296 295 295 294 293 293 293 293 292 291 291 290 289 288 287 286 286 287 288 289 290 291 292 294 295 295 295 294 292 290 287 285 283 281 281 281 281 280 279 276 272 270 270
305 304 303 303 303 303 303 303 303 302 302 302 302 302 302 301 301 302 302 302 302 301 301 300 299 299 299 299 298 297 296 295 295 294 294 293 292 291 291 289 288 286 286 286 287 288 288 290 291 292 294 295 294 294 292 290 288 286 284 283 281 281 280 280 279 277 274 270 269
303 303 302 302 302 302 302 302 302 302 302 302 302 302 302 302 302 303 303 303 303 303 302 302 301 301 302 302 301 300 299 298 297 296 295 295 294 293 292 290 288 287 286 286 286 286 287 288 289 291 292 293 294 293 293 291 289 287 285 284 283 282 281 281 280 278 275 271 269
301 301 301 300 300 300 300 300 300 301 301 301 301 302 302 303 303 303 303 304 303 303 303 303 303 303 303 303 303 302 301 300 299 298 297 297 296 295 293 291 290 288 286 286 286 286 286 286 287 288 290 292 293 293 292 291 289 287 286 285 285 284 283 282 281 279 276 272 270
300 300 300 299 299 299 299 299 299 299 299 299 300 301 302 302 302 303 303 303 303 303 303 303 303 303 303 303 302 302 301 300 299 299 298 298 297 296 294 293 291 289 287 286 286 286 285 285 285 286 288 290 291 292 292 290 289 288 287 287 287 286 285 283 281 280 278 275 271
Height
1482 1481 1481 1480 1480 1479 1478 1478 1477 1476 1475 1475 1474 1474 1473 1472 1471 1470 1470 1469 1468 1467 1466 1465 1465 1464 1463 1463 1462 1461 1461 1461 1460 1460 1459 1459 1458 1457 1457 1456 1455 1454 1453 1452 1451 1450 1449 1449 1448 1447 1447 1446 1445 1444 1444 1443 1442 1442 1441 1441 1441 1441 1441 1442 1442 1443 1443 1443 1444
1481 1480 1480 1480 1479 1478 1478 1477 1476 1476 1475 1475 1474 1473 1473 1472 1471 1470 1470 1469 1468 1467 1466 1465 1465 1464 1463 1462 1462 1461 1461 1460 1460 1460 1459 1459 1458 1457 1457 1456 1455 1455 1454 1453 1451 1450 1450 1449 1448 1448 1447 1446 1446 1445 1445 1444 1443 1443 1442 1442 1441 1441 1441 1441 1442 1442 1443 1443 1443
1480 1480 1479 1479 1478 1478 1477 1476 1476 1475 1475 1474 1473 1473 1472 1471 1471 1470 1469 1469 1468 1467 1466 1465 1464 1464 1463 1462 1461 1461 1460 1460 1460 1459 1459 1458 1458 1457 1457 1456 1456 1455 1455 1454 1452 1451 1450 1449 1448 1448 1447 1447 1446 1446 1445 1445 1444 1444 1443 1443 1443 1442 1442 1442 1441 1442 1442 1443 1443
1479 1479 1478 1478 1477 1477 1476 1476 1475 1475 1474 1474 1473 1472 1472 1471 1470 1470 1469 1468 1468 1467 1466 1465 1464 1463 1462 1462 1461 1461 1460 1460 1459 1459 1459 1458 1458 1457 1457 1456 1456 1455 1455 1454 1453 1452 1451 1450 1449 1448 1448 1447 1447 1446 1446 1445 1445 1445 1444 1444 1443 1443 1443 1442 1442 1442 1442 1442 1442
1478 1478 1478 1477 1477 1476 1475 1475 1475 1474 1474 1473 1472 1472 1471 1471 1470 1470 1469 1468 1467 1466 1465 1465 1464 1463 1462 1462 1461 1460 1460 1459 1459 1459 1458 1458 1457 1457 1456 1456 1455 1455 1455 1454 1454 1453 1452 1451 1450 1449 1448 1447 1447 1446 1446 1445 1445 1445 1445 1444 1444 1444 1443 1443 1443 1442 1442 1442 1442
1477 1477 1477 1476 1476 1475 1475 1474 1474 1473 1473 1472 1472 1471 1471 1470 1470 1469 1469 1468 1467 1466 1465 1465 1464 1463 1462 1461 1461 1460 1460 1459 1459 1458 1458 1457 1457 1457 1456 1456 1455 1455 1455 1454 1454 1453 1453 1452 1451 1450 1449 1448 1447 1447 1446 1446 1445 1445 1445 1445 1444 1444 1444 1444 1443 1443 1443 1442 1442
1476 1476 1476 1475 1475 1475 1474 1474 1473 1473 1472 1472 1471 1471 1470 1470 1470 1469 1468 1468 1467 1466 1465 1465 1464 1463 1462 1461 1460 1460 1459 1459 1458 1458 1457 1457 1457 1456 1456 1455 1455 1455 1454 1454 1453 1453 1453 1452 1451 1450 1450 1449 1448 1447 1447 1446 1446 1445 1445 1445 1445 1444 1444 1444 1443 1443 1443 1443 1443
1475 1475 1475 1475 1474 1474 1473 1473 1472 1472 1471 1471 1471 1470 1470 1470 1469 1469 1468 1468 1467 1466 1465 1465 1464 1463 1462 1461 1460 1460 1459 1458 1458 1457 1457 1456 1456 1456 1455 1455 1455 1454 1454 1453 1453 1453 1452 1452 1452 1451 1450 1450 1449 1448 1447 1446 1446 1445 1445 1445 1445 1444 1444 1444 1443 1443 1443 1443 1443
1474 1474 1474 1474 1473 1473 1472 1472 1471 1471 1470 1470 1470 1470 1469 1469 1469 1468 1468 1467 1467 1466 1465 1465 1464 1463 1462 1461 1460 1460 1459 1458 1458 1457 1457 1456 1456 1455 1455 1455 1454 1454 1453 1453 1453 1452 1452 1452 1451 1451 1450 1450 1449 1448 1447 1447 1446 1445 1445 1445 1445 1444 1444 1444 1443 1443 1443 1443 1443
1473 1473 1473 1473 1472 1472 1471 1471 1470 1470 1470 1469 1469 1469 1469 1468 1468 1468 1467 1467 1466 1466 1465 1464 1464 1463 1462 1461 1460 1460 1459 1458 1457 1457 1456 1456 1455 1455 1455 1454 1454 1453 1453 1452 1452 1452 1451 1451 1451 1451 1450 1450 1450 1449 1448 1447 1446 1446 1445 1445 1445 1444 1444 1444 1443 1443 1443 1442 1442
1472 1472 1472 1472 1471 1471 1470 1470 1470 1469 1469 1468 1468 1468 1468 1468 1467 1467 1467 1466 1466 1465 1465 1464 1463 1463 1462 1461 1460 1460 1459 1458 1457 1456 1456 1455 1455 1455 1454 1454 1453 1453 1452 1452 1452 1451 1451 1451 1451 1450 1450 1450 1450 1449 1448 1447 1447 1446 1445 1445 1444 1444 1444 1443 1443 1443 1442 1442 1442
1471 1471 1471 1471 1470 1470 1470 1469 1468 1468 1467 1467 1467 1467 1467 1467 1466 1466 1466 1466 1465 1465 1464 1464 1463 1462 1462 1461 1460 1460 1459 1458 1457 1456 1456 1455 1455 1454 1454 1453 1453 1452 1452 1451 1451 1451 1450 1450 1450 1450 1450 1450 1449 1449 1448 1448 1447 1446 1445 1445 1444 1444 1443 1443 1443 1442 1442 1442 1442
1470 1470 1470 1470 1469 1469 1469 1468 1467 1467 1466 1466 1466 1466 1465 1465 1465 1465 1465 1465 1465 1464 1464 1463 1462 1462 1461 1461 1460 1459 1459 1458 1457 1456 1455 1455 1455 1454 1453 1453 1452 1452 1451 1451 1450 1450 1450 1450 1450 1449 1449 1449 1449 1449 1448 1447 1447 1446 1446 1445 1445 1444 1443 1443 1442 1442 1442 1442 1441
1469 1469 1469 1469 1468 1468 1468 1467 1467 1466 1465 1465 1465 1465 1465 1465 1465 1464 1464 1464 1464 1463 1463 1462 1462 1461 1461 1460 1460 1459 1458 1458 1457 1456 1455 1455 1454 1454 1453 1452 1452 1451 1451 1450 1450 1450 1449 1449 1449 1449 1449 1449 1448 1448 1448 1447 1447 1446 1445 1445 1444 1444 1443 1443 1442 1442 1441 1441 1441
1468 1468 1468 1467 1467 1467 1466 1466 1466 1465 1465 1464 1464 1464 1464 1463 1463 1463 1463 1463 1463 1462 1462 1461 1461 1460 1460 1460 1459 1458 1458 1457 1456 1456 1455 1455 1454 1453 1453 1452 1451 1451 1450 1450 1449 1449 1449 1448 1448 1448 1448 1448 1448 1447 1447 1447 1446 1446 1445 1445 1444 1443 1443 1442 1442 1441 1441 1441 1440
1467 1467 1466 1466 1466 1466 1465 1465 1465 1465 1464 1464 1463 1463 1463 1462 1462 1462 1462 1462 1461 1461 1461 1460 1460 1460 1459 1459 1458 1457 1457 1456 1456 1455 1455 1454 1454 1453 1452 1451 1451 1450 1450 1449 1449 1448 1448 1448 1447 1447 1447 1447 1447 1447 1446 1446 1446 1445 1445 1444 1444 1443 1442 1442 1441 1441 1440 1440 1440
1465 1465 1465 1465 1465 1465 1465 1464 1464 1464 1463 1463 1462 1462 1462 1461 1461 1461 1461 1460 1460 1460 1460 1459 1459 1458 1458 1458 1457 1456 1456 1455 1455 1455 1454 1454 1453 1452 1452 1451 1450 1450 1449 1449 1448 1448 1447 1447 1446 1446 1446 1446 1446 1446 1445 1445 1445 1445 1444 1444 1443 1443 1442 1441 1441 1440 1440 1440 1439
1465 1464 1464 1464 1464 1464 1463 1463 1463 1462 1462 1462 1461 1461 1461 1461 1460 1460 1460 1460 1459 1459 1459 1458 1458 1457 1457 1456 1456 1455 1455 1455 1454 1454 1453 1453 1452 1452 1451 1450 1450 1449 1449 1448 1447 1447 1446 1446 1446 1445 1445 1445 1445 1445 1445 1445 1444 1444 1444 1443 1443 1442 1441 1441 1440 1440 1439 1439 1439
1463 1463 1463 1462 1462 1462 1462 1462 1462 1461 1461 1460 1460 1460 1460 1460 1460 1459 1459 1459 1459 1458 1458 1457 1457 1456 1456 1455 1455 1455 1454 1454 1453 1453 1452 1452 1451 1451 1450 1450 1449 1449 1448 1447 1447 1446 1446 1445 1445 1445 1444 1444 1444 1444 1443 1443 1443 1443 1443 1442 1442 1441 1441 1440 1440 1439 1439 1438 1438
1462 1461 1461 1461 1461 1461 1461 1461 1460 1460 1460 1460 1459 1459 1459 1459 1459 1458 1458 1458 1458 1457 1457 1456 1456 1455 1455 1455 1454 1454 1453 1452 1452 1452 1451 1451 1450 1450 1450 1449 1449 1448 1447 1447 1446 1445 1445 1445 1444 1444 1443 1443 1443 1442 1442 1442 1442 1442 1442 1441 1441 1441 1440 1440 1439 1439 1438 1438 1437
1460 1460 1460 1460 1460 1460 1460 1460 1459 1459 1459 1458 1458 1458 1458 1458 1457 1457 1457 1457 1456 1456 1456 1455 1455 1454 1454 1453 1453 1452 1452 1451 1451 1450 1450 1450 1449 1449 1449 1448 1448 1447 1447 1446 1445 1445 1444 1444 1443 1443 1442 1442 1441 1441 1441 1441 1441 1441 1440 1440 1440 1440 1440 1439 1438 1438 1437 1437 1436
1460 1460 1460 1459 1459 1459 1459 1458 1458 1458 1458 1457 1457 1457 1456 1456 1456 1456 1455 1455 1455 1455 1455 1454 1454 1453 1453 1452 1452 1451 1451 1450 1450 1449 1449 1448 1448 1447 1447 1447 1446 1446 1445 1445 1445 1444 1444 1443 1442 1442 1441 1440 1440 1440 1440 1440 1440 1440 1440 1439 1439 1439 1438 1438 1438 1437 1437 1436 1435
1459 1459 1458 1458 1458 1458 1458 1457 1457 1457 1456 1456 1456 1455 1455 1455 1455 1454 1454 1454 1454 1453 1453 1453 1452 1452 1451 1451 1450 1450 1450 1449 1449 1448 1448 1447 1447 1446 1445 1445 1445 1445 1444 1444 1444 1443 1442 1442 1441 1440 1440 1440 1439 1439 1439 1438 1438 1438 1438 1438 1438 1438 1437 1437 1437 1436 1436 1435 1435
1458 1458 1457 1457 1457 1457 1457 1456 1456 1456 1455 1455 1455 1454 1454 1454 1453 1453 1453 1452 1452 1452 1451 1451 1451 1450 1450 1450 1449 1449 1448 1448 1447 1447 1446 1446 1445 1445 1444 1444 1443 1443 1443 1442 1442 1442 1441 1440 1440 1440 1439 1438 1438 1437 1437 1437 1437 1437 1437 1437 1437 1436 1436 1436 1435 1435 1435 1434 1434
1457 1457 1457 1456 1456 1456 1456 1455 1455 1455 1455 1454 1454 1453 1453 1452 1452 1452 1451 1451 1451 1450 1450 1450 1449 1449 1449 1448 1448 1447 1447 1446 1446 1445 1445 1445 1444 1444 1443 1442 1442 1441 1441 1441 1440 1440 1440 1439 1439 1438 1437 1437 1436 1436 1435 1435 1435 1435 1435 1435 1435 1435 1435 1435 1435 1434 1434 1433 1433
1456 1456 1456 1456 1455 1455 1455 1455 1454 1454 1453 1453 1453 1452 1452 1451 1451 1450 1450 1450 1449 1449 1448 1448 1447 1447 1447 1446 1446 1445 1445 1445 1444 1444 1443 1443 1443 1442 1442 1441 1440 1440 1439 1439 1439 1439 1438 1438 1437 1436 1436 1435 1435 1434 1434 1434 1433 1433 1433 1434 1434 1434 1434 1433 1433 1433 1433 1432 1432
1455 1455 1455 1455 1455 1455 1454 1454 1453 1453 1452 1452 1451 1451 1450 1450 1450 1449 1449 1448 1448 1447 1447 1446 1446 1445 1445 1444 1444 1443 1443 1443 1442 1442 1441 1441 1441 1440 1440 1440 1439 1438 1438 1437 1437 1437 1436 1436 1435 1435 1435 1434 1433 1433 1432 1432 1432 1432 1432 1432 1432 1432 1432 1432 1432 1432 1431 1431 1431
1454 1454 1454 1454 1453 1453 1453 1452 1452 1452 1451 1450 1450 1450 1449 1449 1448 1448 1447 1446 1446 1445 1445 1445 1444 1444 1443 1442 1442 1441 1441 1440 1440 1440 1440 1439 1439 1439 1438 1438 1438 1437 1436 1436 1435 1435 1435 1434 1434 1434 1433 1432 1432 1431 1431 1430 1430 1430 1430 1430 1430 1430 1430 1430 1430 1430 1430 1430 1430
1453 1453 1452 1452 1452 1451 1451 1451 1450 1450 1450 1449 1449 1448 1448 1447 1446 1446 1445 1445 1445 1444 1443 1443 1442 1442 1441 1441 1440 1440 1439 1439 1438 1438 1437 1437 1437 1437 1436 1436 1436 1435 1435 1434 1434 1433 1433 1432 1432 1432 1431 1430 1430 1430 1429 1429 1428 1428 1428 1428 1428 1429 1429 1429 1429 1429 1428 1428 1428
1451 1451 1450 1450 1450 1450 1449 1449 1448 1448 1447 1447 1447 1446 1446 1445 1445 1445 1444 1443 1443 1442 1442 1441 1441 1440 1440 1439 1439 1438 1438 1437 1437 1436 1435 1435 1435 1435 1435 1434 1434 1434 1433 1433 1432 1431 1431 1430 1430 1430 1430 1429 1428 1428 1427 1427 1426 1426 1426 1426 1426 1426 1427 1427 1427 1427 1427 1427 1427
1450 1449 1449 1448 1448 1448 1447 1447 1446 1446 1445 1445 1444 1444 1444 1443 1443 1442 1442 1441 1441 1440 1440 1440 1439 1439 1438 1438 1437 1437 1436 1435 1435 1435 1434 1433 1433 1432 1432 1432 1432 1432 1431 1431 1430 1430 1429 1429 1428 1428 1428 1427 1427 1426 1425 1425 1425 1424 1424 1424 1424 1425 1425 1425 1425 1425 1425 1425 1425
1448 1448 1447 1447 1446 1446 1445 1445 1444 1444 1443 1442 1442 1441 1441 1441 1440 1440 1440 1439 1439 1438 1438 1437 1437 1437 1436 1436 1435 1435 1434 1434 1433 1433 1432 1431 1430 1430 1430 1430 1430 1430 1430 1430 1429 1428 1428 1427 1426 1426 1425 1425 1425 1424 1424 1423 1423 1422 1422 1422 1422 1422 1423 1423 1423 1424 1424 1424 1424
1446 1446 1445 1445 1444 1444 1443 1443 1442 1441 1441 1440 1440 1439 1439 1438 1438 1438 1437 1437 1436 1436 1435 1435 1435 1434 1434 1434 1433 1433 1432 1432 1431 1431 1430 1429 1429 1428 1428 1428 1428 1428 1428 1428 1427 1426 1426 1425 1425 1424 1424 1423 1423 1422 1422 1421 1421 1420 1420 1420 1420 1420 1420 1421 1421 1421 1422 1422 1422
1445 1444 1444 1443 1443 1442 1442 1441 1440 1440 1439 1438 1438 1437 1437 1436 1435 1435 1435 1434 1434 1433 1433 1432 1432 1432 1431 1431 1431 1430 1430 1430 1429 1429 1428 1427 1427 1426 1426 1425 1426 1426 1426 1426 1425 1425 1424 1424 1423 1423 1422 1421 1420 1420 1420 1420 1419 1419 1418 1418 1418 1418 1418 1419 1419 1419 1420 1420 1420
1444 1443 1442 1442 1441 1441 1440 1440 1439 1438 1437 1437 1436 1435 1435 1434 1434 1433 1433 1432 1431 1431 1430 1430 1430 1429 1429 1429 1428 1428 1428 1427 1427 1426 1426 1425 1425 1424 1424 1423 1424 1424 1424 1424 1423 1423 1422 1422 1421 1421 1420 1419 1419 1418 1418 1417 1417 1417 1416 1416 1416 1416 1416 1417 1417 1417 1418 1418 1419
1442 1442 1441 1440 1440 1439 1439 1438 1437 1437 1436 1435 1435 1434 1433 1433 1432 1431 1431 1430 1430 1429 1428 1428 1428 1427 1427 1426 1426 1426 1425 1425 1425 1424 1424 1423 1423 1422 1421 1421 1421 1422 1422 1422 1421 1421 1420 1420 1420 1419 1418 1417 1417 1416 1416 1415 1415 1415 1415 1414 1414 1414 1415 1415 1415 1415 1415 1416 1416
1441 1441 1440 1439 1439 1438 1437 1437 1436 1435 1435 1434 1433 1432 1432 1431 1430 1430 1429 1429 1428 1427 1426 1426 1426 1425 1425 1424 1424 1424 1423 1423 1422 1422 1421 1421 1421 1420 1420 1419 1419 1419 1419 1419 1419 1419 1418 1418 1417 1417 1416 1415 1415 1414 1414 1413 1413 1413 1412 1412 1412 1412 1412 1413 1413 1413 1413 1414 1414
1440 1440 1439 1438 1437 1437 1436 1435 1435 1434 1433 1432 1432 1431 1430 1430 1429 1428 1428 1427 1426 1425 1425 1424 1424 1423 1423 1422 1422 1421 1421 1421 1420 1420 1420 1419 1419 1418 1417 1417 1416 1417 1417 1417 1417 1416 1416 1416 1415 1415 1414 1414 1413 1412 1412 1411 1411 1410 1410 1410 1410 1410 1410 1410 1411 1411 1411 1412 1412
1439 1439 1438 1437 1436 1436 1435 1434 1434 1433 1432 1431 1430 1430 1429 1429 1428 1427 1426 1425 1425 1424 1423 1422 1422 1421 1421 1420 1420 1419 1419 1419 1419 1418 1417 1417 1416 1416 1415 1415 1414 1414 1414 1415 1414 1414 1414 1414 1413 1413 1412 1412 1411 1410 1410 1410 1409 1408 1408 1408 1408 1408 1409 1409 1409 1409 1409 1410 1410
1438 1437 1437 1436 1435 1435 1434 1433 1432 1432 1431 1430 1429 1429 1428 1427 1426 1425 1425 1424 1423 1422 1421 1421 1420 1420 1419 1418 1418 1417 1417 1416 1416 1416 1415 1415 1415 1414 1414 1413 1412 1412 1412 1412 1412 1412 1411 1411 1411 1411 1410 1410 1409 1409 1408 1407 1407 1406 1406 1406 1406 1406 1406 1406 1406 1407 1407 1407 1408
1436 1436 1435 1435 1434 1433 1433 1432 1431 1430 1430 1429 1428 1427 1426 1426 1425 1424 1423 1423 1422 1421 1420 1419 1419 1418 1417 1417 1416 1415 1415 1414 1414 1414 1414 1413 1412 1412 1411 1411 1410 1410 1410 1410 1409 1409 1409 1409 1409 1409 1409 1408 1407 1407 1406 1405 1405 1404 1404 1404 1404 1404 1404 1404 1404 1405 1405 1405 1406